Regional Weather Roundup
Issued by NWS Boston, MA

Home | Current Version | Previous Version | Text Only | Print | Product List | Glossary On
Versions: 1 2 3 4 5 6 7 8 9 10 11 12 13 14 15 16 17 18 19 20 21 22 23 24 25 26 27 28 29 30 31 32 33 34 35 36 37 38 39 40 41 42 43 44 45 46 47 48 49 50
000
ASUS41 KBOX 281110
RWRBOX

REGIONAL WEATHER ROUNDUP
NATIONAL WEATHER SERVICE TAUNTON MA
700 AM EDT WED SEP 28 2016

NOTE:  "FAIR" INDICATES FEW OR NO CLOUDS BELOW 12,000 FEET WITH NO
SIGNIFICANT WEATHER AND/OR OBSTRUCTIONS TO VISIBILITY.

MAZALL-281200-
EASTERN MASSACHUSETTS

CITY           SKY/WX    TMP DP  RH WIND       PRES   REMARKS
BOSTON         CLOUDY    58  53  84 NE14G24   30.16R
BEVERLY        CLOUDY    57  53  86 NE9G18    30.16R
LAWRENCE       CLOUDY    59  53  80 NE10      30.19R
BEDFORD        CLOUDY    58  51  78 E13       30.15R
BLUE HILL        N/A     56  52  86 NE14G24   30.14R
NORWOOD        CLOUDY    60  53  77 NE10      30.15R
MARSHFIELD     CLOUDY    61  55  82 NE10G20   30.15R
PLYMOUTH       CLOUDY    60  54  80 NE14G23   30.13R
TAUNTON        CLOUDY    59  56  89 N6        30.12R
NEW BEDFORD    CLOUDY    62  58  86 NE7       30.10R
$$

MAZALL-281200-
CAPE COD AND THE ISLANDS

CITY           SKY/WX    TMP DP  RH WIND       PRES   REMARKS
FALMOUTH       CLOUDY    61  59  94 NE13G23   30.11
HYANNIS        CLOUDY    61  57  87 NE12      30.10R
CHATHAM        CLOUDY    61  58  90 NE10      30.13R
PROVINCETOWN   CLOUDY    60  54  80 NE14G24   30.14R
NANTUCKET      CLOUDY    62  60  93 NE13      30.08R
MARTHAS VNYRD  CLOUDY    63  60  90 NE13      30.09R
$$

MAZALL-281200-
CENTRAL AND WESTERN MASSACHUSETTS

CITY           SKY/WX    TMP DP  RH WIND       PRES   REMARKS
WORCESTER      CLOUDY    55  54  96 NE8       30.15R
FITCHBURG      CLOUDY    59  53  80 E7        30.17R
ORANGE         CLOUDY    58  56  93 VRB6      30.15R
SPRINGFIELD    MOCLDY    60  55  85 NE7       30.11R
WESTFIELD      MOCLDY    55  55 100 N6        30.12R
NORTH ADAMS    CLOUDY    48  47  96 CALM      30.13R
PITTSFIELD     CLOUDY    51  50  96 CALM      30.12R
$$

RIZALL-281200-
RHODE ISLAND

CITY           SKY/WX    TMP DP  RH WIND       PRES   REMARKS
PROVIDENCE     CLOUDY    60  57  89 NE14      30.12R
NEWPORT        CLOUDY    61  58  90 NE9       30.10R
BLOCK ISLAND   CLOUDY    63  60  90 NE12G21   30.08R
SMITHFIELD     CLOUDY    58  55  90 E8G16     30.14R
WESTERLY       CLOUDY    62  57  83 N7        30.09R
$$

CTZALL-281200-
CONNECTICUT

CITY           SKY/WX    TMP DP  RH WIND       PRES   REMARKS
BRADLEY INTL   CLOUDY    56  54  93 N6        30.11R
HARTFORD       CLOUDY    58  56  93 N5        30.11R
BRIDGEPORT     CLOUDY    61  58  90 NE10      30.07R FOG
DANBURY        FOG       52  52 100 E3        30.09R VSB 1/4
GROTON         PTCLDY    63  58  83 NE13      30.08R
NEW HAVEN      CLOUDY    60  59  96 NE10      30.09R
CHESTER        CLOUDY    59  59 100 NE5       30.10R FOG
MERIDEN        CLOUDY    60  56  86 NE3       30.10R
WILLIMANTIC    CLOUDY    61  59  93 NE9       30.12R
OXFORD         FOG       55  54  94 E12       30.10R VSB 1/2
$$

MEZ002-015-021-024-NHZ003-005-008-011-012-014-VTZ005-008-281200-
NORTHERN NEW ENGLAND

CITY           SKY/WX    TMP DP  RH WIND       PRES   REMARKS
PORTLAND ME    CLOUDY    56  51  84 NE14      30.21R
BANGOR ME      CLOUDY    49  45  86 N8        30.28R
CONCORD NH     CLOUDY    57  52  83 E8        30.19R
MANCHESTER NH  CLOUDY    57  52  83 E8        30.17R
NASHUA NH      CLOUDY    58  54  86 NE9       30.18R
PORTSMOUTH NH  CLOUDY    56  52  84 E9        30.18R
JAFFREY NH     CLOUDY    56  52  86 CALM      30.18R
KEENE NH       CLOUDY    50  49  96 CALM      30.16R
BURLINGTON VT  MOCLDY    58  48  69 SE5       30.13R
MT. WASHINGTON PTCLDY    39  32  75 N3          N/A
$$

NYZ052-076-281200-
EASTERN NEW YORK

CITY           SKY/WX    TMP DP  RH WIND       PRES   REMARKS
ALBANY         PTCLDY    49  48  97 CALM      30.11R FOG
NEW YORK CITY  PTCLDY    64  60  87 NE8       30.04R
$$

ANZALL-281200-
MARINE OBSERVATIONS

STATION/POSITION TIME  TEMP    WIND        PRES    VSBY  WAVE
                       AIR SEA DIR/SP/G                  HT/PER
                 (UTC) (F)     (DEG/KT/KT) (MB)    (MI)  (FT/S)
BOSTON BUOY      1050   59 64   40/ 17/ 21 1020.6R         4/ 5
BUZZARDS BAY     1000   63      40/ 21/ 23 1018.5R
NANTUCKET SOUND  1050   63 67   50/ 17/ 21 1018.6R         2/ 4
MASS BAY-STELLWA 1004   59 62   50/ 16/ 19 1020.3R  1 7/8  4/ 5
ISLE OF SHOALS   1000   56      60/ 22/ 23 1020.8R
S OF BLOCK IS    1025      66                N/A           4/ 7
$$

......................KEY.........................
  SKY/WX - SKY CONDITION/PRESENT WEATHER
  TMP    - TEMPERATURE IN FAHRENHEIT
  DWPT   - DEWPOINT IN FAHRENHEIT
  RH     - RELATIVE HUMIDITY IN PERCENT
  WIND   - DIRECTION AND SPEED IN MPH
  PRES   - MEAN SEA LEVEL PRESSURE IN INCHES OF HG
  WCI    - WIND CHILL INDEX
  VSB    - VISIBILITY IN MILES
  HX     - HEAT INDEX
  TC     - TEMPERATURE IN CELSIUS
  VRB    - VARIABLE WIND DIRECTION
  N/A    - NOT AVAILABLE



USA.gov is the U.S. government's official web portal to all federal, state and local government web resources and services.